SCP
-0 0 0 0 0 0 0 0 0 0 -0 -0 -0 0 0 -0 0 1 1 0 0 0 0 0 0 0 0 0 0 0 0 0 0 0 0 0 0 0 0 0 0 0 0
0 0 0 0 0 0 0 0 0 0 -0 -0 0 0 0 -0 0 0 1 0 0 0 0 0 0 0 0 0 0 0 0 0 0 0 0 0 0 0 0 0 0 0 0
0 0 0 0 0 0 0 0 0 0 0 0 -0 0 0 -0 0 1 1 0 0 0 0 0 0 0 0 0 0 0 0 0 0 0 0 0 0 0 0 0 0 0 0
0 0 0 0 0 0 0 0 0 0 0 0 0 0 0 0 0 0 0 0 0 0 0 0 0 0 0 0 0 0 0 0 0 0 0 0 0 0 0 0 0 0 0
0 0 0 0 0 0 0 0 0 0 0 0 0 0 0 0 0 0 0 0 0 0 0 0 0 0 0 0 0 0 0 0 0 0 0 0 0 0 0 0 0 0 0
0 0 0 0 0 0 0 0 0 0 0 -0 0 0 0 0 0 0 0 0 0 0 0 0 0 0 0 0 0 0 0 0 0 0 0 0 0 0 0 0 0 0 0
0 0 0 0 0 0 0 -0 0 0 0 0 0 0 0 0 0 0 0 0 0 0 0 0 0 0 0 0 0 0 0 0 0 0 0 0 0 0 0 0 0 0 0
-0 -0 -0 -0 0 0 -0 0 0 0 0 0 0 0 0 0 0 0 0 0 0 0 0 0 0 0 0 0 0 0 0 0 0 0 0 0 0 0 0 0 0 0 0
-0 0 0 -0 -0 -0 -0 -0 -0 0 0 0 0 0 0 0 0 0 0 0 0 0 0 0 0 0 0 0 0 0 0 0 0 0 0 0 0 0 0 0 0 0 0
-0 -0 -0 -0 -0 -0 -0 -0 -0 -0 -0 -0 0 0 0 0 0 0 0 0 0 0 0 0 0 0 0 0 0 0 0 0 0 0 0 0 0 0 0 0 0 0 0
-0 -0 -0 -0 -0 0 0 -0 -0 -0 -0 0 0 0 0 0 0 0 0 0 0 0 0 0 0 0 0 0 0 0 0 0 0 0 0 0 0 0 0 0 0 0 0
-0 -0 -0 -0 -0 -0 0 0 0 -0 -0 -0 -0 0 0 0 0 0 0 0 0 0 0 0 0 0 0 0 0 0 0 0 0 0 0 0 0 0 0 0 0 0 0
0 0 0 0 -0 -0 -0 -0 -0 0 -0 0 0 0 0 0 0 0 0 0 0 0 0 0 0 0 0 0 0 0 0 0 0 0 0 0 0 0 0 0 0 0 0
0 0 0 0 0 0 0 0 0 0 0 0 0 -0 0 0 0 0 0 0 0 0 0 0 0 0 0 0 0 0 0 0 0 0 0 0 0 0 0 0 0 0 0
0 0 0 0 0 0 0 0 0 0 0 0 0 0 0 0 0 0 0 0 0 0 0 0 0 0 0 0 0 0 0 0 0 0 0 0 0 0 0 0 0 0 0
0 0 0 0 0 0 0 0 0 0 0 0 0 0 0 0 0 0 0 0 0 0 0 0 0 0 0 0 0 0 0 0 0 0 0 0 0 0 0 0 0 0 0
0 -0 -0 0 0 0 0 0 0 0 0 0 0 0 0 0 0 0 0 0 0 0 0 0 0 0 0 0 0 0 0 0 0 0 0 0 0 0 0 0 0 0 0
0 0 0 0 0 0 0 0 0 0 0 0 0 0 -0 -0 -0 -0 -0 0 0 0 0 0 0 0 0 0 0 0 0 0 0 0 0 0 0 0 0 0 0 0 0
0 0 0 0 0 0 0 0 0 0 0 0 0 0 0 0 0 0 0 0 0 0 0 0 0 0 0 0 0 0 0 0 0 0 0 0 0 0 0 0 0 0 0
0 0 0 0 0 0 0 0 0 0 0 0 0 0 0 0 0 0 0 0 0 0 0 0 0 0 0 0 0 0 0 0 0 0 0 0 0 0 0 0 0 0 0
0 0 0 -0 -0 -0 -0 -0 -0 -0 0 0 0 0 0 0 0 0 0 0 0 0 0 0 0 0 0 0 0 0 0 0 0 0 0 0 0 0 0 0 0 0 0
0 0 -0 0 0 -0 -0 -0 -0 -0 -0 0 0 0 0 0 0 0 0 0 0 0 0 0 0 0 0 0 0 0 0 0 0 0 0 0 0 0 0 0 0 0 0
-0 -0 -0 -0 -0 0 -0 -0 0 0 0 0 0 0 0 0 0 0 0 0 0 0 0 0 0 0 0 0 0 0 0 0 0 0 0 0 0 0 0 0 0 0 0
-0 -0 0 0 0 0 0 0 0 0 0 0 0 0 0 0 0 0 0 0 0 0 0 0 0 0 0 0 0 0 0 0 0 0 0 0 0 0 0 0 0 0 0
-0 0 0 0 0 0 0 0 0 0 0 0 0 0 0 0 0 0 0 0 0 0 0 0 0 0 0 0 0 0 0 0 0 0 0 0 0 0 0 0 0 0 0
0 0 0 0 0 0 0 0 0 0 0 0 0 0 0 0 0 0 0 0 0 0 0 0 0 0 0 0 0 0 0 0 0 0 0 0 0 0 0 0 0 0 0
Wind_Speed_500mb
82 72 64 51 57 67 68 72 62 58 52 52 58 53 94 79 73 107 117 107 102 96 85 76 74 76 72 72 68 64 60 55 47 44 35 29 24 19 19 19 18 15 12
80 79 69 69 61 64 67 70 58 57 56 61 67 55 87 71 74 97 119 111 104 100 89 77 81 79 76 71 72 71 65 58 54 51 36 25 22 20 17 15 11 9 11
80 78 64 63 57 53 67 55 54 56 54 56 72 51 60 57 58 112 111 112 110 101 94 88 83 84 79 79 80 76 70 67 59 47 30 20 16 27 19 14 10 9 7
81 79 69 62 62 62 56 49 50 49 52 58 69 59 36 45 26 103 110 109 107 102 92 95 86 86 82 83 82 78 73 68 64 53 39 29 30 19 18 18 18 16 18
79 75 67 62 58 68 60 46 50 48 55 63 61 37 14 44 43 95 95 104 106 101 94 96 95 87 81 84 82 79 77 68 60 57 50 34 38 28 25 27 24 23 28
75 67 56 56 48 47 47 44 47 54 60 70 48 23 27 51 30 85 91 95 92 90 90 91 94 94 84 82 81 79 76 70 61 57 51 48 44 39 28 18 23 26 27
64 62 53 43 46 49 41 45 47 61 58 74 44 54 21 40 48 79 85 86 89 85 82 84 96 104 87 83 80 79 73 67 62 58 53 48 42 37 24 16 19 20 14
51 50 44 43 44 44 44 53 62 63 58 58 55 36 45 9 55 82 88 89 89 88 87 94 95 98 92 82 80 77 73 68 61 55 52 46 43 36 22 12 12 13 12
31 30 36 43 43 47 49 57 60 59 61 55 74 50 43 41 38 86 91 90 91 91 90 94 91 90 87 82 77 76 74 71 64 59 55 50 45 37 29 17 15 15 13
20 24 32 37 42 46 46 56 50 61 62 57 43 40 57 67 57 97 96 92 91 93 101 86 84 89 87 84 77 74 73 69 65 62 57 54 48 39 29 18 21 26 20
21 22 30 49 49 46 46 55 56 57 52 48 31 20 20 40 78 106 96 90 97 93 88 89 86 85 83 79 77 75 71 70 69 62 55 49 46 45 39 34 34 30 19
7 29 43 52 56 47 40 48 48 42 45 38 24 19 20 51 87 85 84 86 94 91 89 93 91 85 83 80 82 78 76 74 71 63 52 43 40 42 36 30 37 35 22
36 45 68 69 69 57 48 49 48 44 40 27 15 14 20 23 38 57 79 77 83 83 85 84 87 84 78 75 72 73 76 73 68 57 48 40 38 37 37 38 39 32 23
89 78 93 81 73 54 46 44 42 30 16 18 15 16 12 7 13 9 30 86 81 78 77 82 87 85 80 81 79 81 75 69 59 51 43 37 43 46 44 37 33 29 20
83 97 88 89 81 69 59 58 50 39 29 28 28 25 18 14 11 19 20 40 65 85 84 91 86 88 93 81 73 68 61 57 48 43 39 47 41 30 37 34 35 26 22
80 91 87 84 71 62 54 45 39 31 25 22 22 19 10 9 15 19 21 19 22 45 80 83 67 80 66 66 65 59 47 47 51 50 56 49 43 47 37 33 31 26 20
74 78 76 72 66 59 51 47 39 32 29 25 20 15 9 5 14 19 19 19 18 15 28 41 45 51 61 57 49 38 39 42 50 55 44 43 44 40 34 37 32 25 21
65 63 60 58 57 49 45 39 37 34 31 29 22 20 15 13 9 15 21 16 16 18 19 18 20 25 32 35 40 39 38 38 42 38 33 36 37 39 39 36 30 27 26
54 53 51 48 46 43 38 36 36 33 28 25 17 14 10 8 10 9 8 9 13 15 19 21 23 27 31 35 35 32 35 38 40 42 45 41 44 40 40 36 33 31 31
49 49 48 45 45 40 32 29 31 28 29 20 13 10 5 2 5 8 13 17 17 18 22 24 26 29 32 32 33 36 39 43 47 48 44 46 40 39 38 36 34 31 27
40 41 43 44 40 37 37 41 33 36 26 19 15 11 6 4 6 11 19 22 24 30 35 40 42 36 39 38 36 37 44 45 50 47 41 42 42 39 36 36 33 27 25
33 33 34 38 38 36 32 36 38 32 25 25 26 21 18 17 17 17 18 21 23 28 33 39 42 45 46 49 50 48 46 53 50 43 38 41 41 38 41 39 36 34 33
25 26 29 29 32 34 32 29 32 26 27 29 24 26 24 23 23 24 25 25 27 34 36 36 40 41 41 41 44 47 48 52 51 49 52 52 52 50 47 45 42 39 34
19 19 18 19 22 30 34 37 37 38 36 34 34 33 32 29 25 26 29 31 35 37 39 40 42 44 45 45 48 50 54 57 56 52 53 54 52 48 45 46 47 41 35
13 13 16 24 29 28 28 28 27 28 29 31 31 32 35 39 39 36 39 40 37 37 43 44 42 46 51 48 46 50 55 58 56 54 57 57 55 55 53 52 47 43 40
20 22 24 24 27 29 29 32 38 39 39 41 42 42 41 40 38 39 46 45 47 49 49 46 47 49 51 47 47 51 52 54 57 63 64 64 61 60 56 53 49 44 42
Wind_Direction_500mb
271 266 264 248 254 242 237 246 248 242 236 225 215 227 207 245 264 195 204 196 196 189 194 190 191 185 188 184 182 180 180 182 181 179 184 194 210 219 218 221 230 239 264
261 259 256 245 246 240 240 240 246 235 242 219 209 220 227 257 269 203 200 193 192 190 191 193 188 186 189 189 185 186 183 183 184 187 184 189 198 196 194 192 199 213 230
254 254 241 236 238 229 227 245 246 230 235 220 202 189 210 265 249 191 194 193 191 191 189 188 195 189 194 193 192 191 191 185 189 194 175 166 185 171 175 165 180 202 249
241 247 232 232 233 234 236 247 237 232 227 215 199 195 191 289 205 189 192 192 194 193 190 191 192 191 199 199 198 194 195 194 189 188 194 195 183 167 167 183 197 216 262
226 236 221 231 242 238 233 248 222 230 218 204 197 181 205 284 308 195 190 189 193 197 191 195 191 193 200 203 202 197 199 200 198 194 190 188 176 178 174 182 204 236 255
220 226 221 229 237 221 226 235 222 221 218 205 188 155 264 283 247 181 185 189 190 196 201 199 201 198 203 204 205 204 204 202 202 203 203 203 196 195 187 197 220 250 257
219 215 218 224 225 214 211 221 226 213 215 212 202 198 236 283 200 186 189 193 197 201 206 208 205 200 202 204 206 204 202 202 199 201 202 206 208 208 212 236 241 246 263
213 209 204 217 219 220 243 239 214 205 203 209 189 175 222 298 187 197 198 197 201 196 193 189 194 198 199 203 206 205 204 205 201 199 200 204 207 212 224 221 242 216 226
198 173 199 216 221 232 231 200 196 194 188 202 212 207 245 275 227 196 203 202 196 194 187 194 197 199 203 207 206 206 205 204 204 207 209 212 212 212 210 224 230 229 173
221 202 207 203 211 225 217 196 190 188 186 185 192 208 233 245 235 203 205 202 199 197 191 194 196 202 209 210 208 206 204 202 206 209 209 210 211 211 219 249 244 229 266
254 229 215 230 227 217 204 190 187 185 181 171 159 185 196 225 200 198 205 208 205 201 197 201 201 201 205 208 207 206 203 203 204 204 208 215 219 229 249 260 241 227 223
252 248 205 226 209 183 163 174 186 178 163 157 143 74 69 159 176 198 207 210 208 206 205 206 209 212 212 210 207 204 203 203 205 208 209 211 224 236 242 230 225 227 233
87 88 93 120 146 157 158 153 152 152 150 157 137 108 102 109 147 194 199 205 210 208 206 207 204 205 206 205 203 204 204 203 208 212 217 232 239 239 231 230 229 239 252
58 57 76 92 104 135 150 151 144 145 137 140 131 116 127 171 195 156 188 200 206 206 205 204 204 201 205 201 209 204 203 207 210 216 224 235 240 236 229 226 235 237 252
44 54 63 72 80 89 96 101 108 106 106 99 109 112 101 76 142 185 170 162 193 212 221 205 204 207 202 205 199 204 210 210 215 223 237 222 219 227 231 233 238 245 241
41 52 57 65 70 75 79 87 92 93 97 105 112 121 120 127 105 138 155 156 177 191 201 206 193 184 190 198 201 199 216 235 231 227 216 216 217 220 226 233 230 231 232
48 51 56 58 60 64 68 72 81 92 99 100 90 90 89 118 145 149 161 171 179 164 171 191 194 200 203 209 214 220 228 237 232 211 205 211 212 220 233 227 222 225 235
47 54 59 61 65 65 68 74 77 79 79 80 77 72 70 78 115 170 177 197 235 234 234 216 215 222 215 212 210 220 217 216 211 216 232 231 229 240 228 219 221 231 240
48 50 54 57 61 63 67 77 80 79 79 75 67 65 66 85 108 124 144 170 181 200 206 213 213 216 211 205 208 216 224 230 231 232 224 229 235 222 218 223 225 227 235
47 47 51 55 56 54 53 60 63 69 69 69 85 102 118 243 256 230 217 221 234 256 270 264 254 251 247 247 241 232 226 229 227 221 232 225 219 220 219 221 230 238 249
50 49 49 50 50 46 39 44 42 45 28 18 22 16 342 286 245 250 257 251 236 233 232 231 236 241 262 256 253 236 228 232 237 230 226 222 220 222 221 226 237 247 257
50 48 47 44 41 39 37 38 39 31 14 7 6 347 335 319 308 292 277 270 270 265 248 241 238 234 233 229 226 228 226 227 225 220 225 227 225 228 231 237 242 245 251
41 39 33 27 26 21 24 23 26 9 9 8 347 341 335 321 315 299 290 290 286 271 259 258 259 253 245 237 231 229 222 220 221 215 213 221 226 227 231 239 238 242 252
33 31 29 27 23 16 10 8 359 352 349 341 337 330 326 319 309 310 314 298 275 274 271 265 261 254 249 244 236 234 228 224 223 226 227 223 224 227 229 229 235 243 248
18 7 2 4 2 0 357 348 333 335 341 340 331 318 316 318 316 313 286 280 287 283 271 266 263 263 256 249 245 240 234 236 234 229 229 226 224 225 226 228 232 237 237
348 346 347 338 335 330 327 326 329 322 313 312 316 321 320 312 307 303 296 289 280 272 270 268 262 256 256 251 244 239 235 231 232 232 231 232 232 232 229 229 231 231 233
Wind_Speed_850mb
82 72 64 51 57 67 68 72 62 58 52 52 58 53 94 79 73 107 117 107 102 96 85 76 74 76 72 72 68 64 60 55 47 44 35 29 24 19 19 19 18 15 12
80 79 69 69 61 64 67 70 58 57 56 61 67 55 87 71 74 97 119 111 104 100 89 77 81 79 76 71 72 71 65 58 54 51 36 25 22 20 17 15 11 9 11
80 78 64 63 57 53 67 55 54 56 54 56 72 51 60 57 58 112 111 112 110 101 94 88 83 84 79 79 80 76 70 67 59 47 30 20 16 27 19 14 10 9 7
81 79 69 62 62 62 56 49 50 49 52 58 69 59 36 45 26 103 110 109 107 102 92 95 86 86 82 83 82 78 73 68 64 53 39 29 30 19 18 18 18 16 18
79 75 67 62 58 68 60 46 50 48 55 63 61 37 14 44 43 95 95 104 106 101 94 96 95 87 81 84 82 79 77 68 60 57 50 34 38 28 25 27 24 23 28
75 67 56 56 48 47 47 44 47 54 60 70 48 23 27 51 30 85 91 95 92 90 90 91 94 94 84 82 81 79 76 70 61 57 51 48 44 39 28 18 23 26 27
64 62 53 43 46 49 41 45 47 61 58 74 44 54 21 40 48 79 85 86 89 85 82 84 96 104 87 83 80 79 73 67 62 58 53 48 42 37 24 16 19 20 14
51 50 44 43 44 44 44 53 62 63 58 58 55 36 45 9 55 82 88 89 89 88 87 94 95 98 92 82 80 77 73 68 61 55 52 46 43 36 22 12 12 13 12
31 30 36 43 43 47 49 57 60 59 61 55 74 50 43 41 38 86 91 90 91 91 90 94 91 90 87 82 77 76 74 71 64 59 55 50 45 37 29 17 15 15 13
20 24 32 37 42 46 46 56 50 61 62 57 43 40 57 67 57 97 96 92 91 93 101 86 84 89 87 84 77 74 73 69 65 62 57 54 48 39 29 18 21 26 20
21 22 30 49 49 46 46 55 56 57 52 48 31 20 20 40 78 106 96 90 97 93 88 89 86 85 83 79 77 75 71 70 69 62 55 49 46 45 39 34 34 30 19
7 29 43 52 56 47 40 48 48 42 45 38 24 19 20 51 87 85 84 86 94 91 89 93 91 85 83 80 82 78 76 74 71 63 52 43 40 42 36 30 37 35 22
36 45 68 69 69 57 48 49 48 44 40 27 15 14 20 23 38 57 79 77 83 83 85 84 87 84 78 75 72 73 76 73 68 57 48 40 38 37 37 38 39 32 23
89 78 93 81 73 54 46 44 42 30 16 18 15 16 12 7 13 9 30 86 81 78 77 82 87 85 80 81 79 81 75 69 59 51 43 37 43 46 44 37 33 29 20
83 97 88 89 81 69 59 58 50 39 29 28 28 25 18 14 11 19 20 40 65 85 84 91 86 88 93 81 73 68 61 57 48 43 39 47 41 30 37 34 35 26 22
80 91 87 84 71 62 54 45 39 31 25 22 22 19 10 9 15 19 21 19 22 45 80 83 67 80 66 66 65 59 47 47 51 50 56 49 43 47 37 33 31 26 20
74 78 76 72 66 59 51 47 39 32 29 25 20 15 9 5 14 19 19 19 18 15 28 41 45 51 61 57 49 38 39 42 50 55 44 43 44 40 34 37 32 25 21
65 63 60 58 57 49 45 39 37 34 31 29 22 20 15 13 9 15 21 16 16 18 19 18 20 25 32 35 40 39 38 38 42 38 33 36 37 39 39 36 30 27 26
54 53 51 48 46 43 38 36 36 33 28 25 17 14 10 8 10 9 8 9 13 15 19 21 23 27 31 35 35 32 35 38 40 42 45 41 44 40 40 36 33 31 31
49 49 48 45 45 40 32 29 31 28 29 20 13 10 5 2 5 8 13 17 17 18 22 24 26 29 32 32 33 36 39 43 47 48 44 46 40 39 38 36 34 31 27
40 41 43 44 40 37 37 41 33 36 26 19 15 11 6 4 6 11 19 22 24 30 35 40 42 36 39 38 36 37 44 45 50 47 41 42 42 39 36 36 33 27 25
33 33 34 38 38 36 32 36 38 32 25 25 26 21 18 17 17 17 18 21 23 28 33 39 42 45 46 49 50 48 46 53 50 43 38 41 41 38 41 39 36 34 33
25 26 29 29 32 34 32 29 32 26 27 29 24 26 24 23 23 24 25 25 27 34 36 36 40 41 41 41 44 47 48 52 51 49 52 52 52 50 47 45 42 39 34
19 19 18 19 22 30 34 37 37 38 36 34 34 33 32 29 25 26 29 31 35 37 39 40 42 44 45 45 48 50 54 57 56 52 53 54 52 48 45 46 47 41 35
13 13 16 24 29 28 28 28 27 28 29 31 31 32 35 39 39 36 39 40 37 37 43 44 42 46 51 48 46 50 55 58 56 54 57 57 55 55 53 52 47 43 40
20 22 24 24 27 29 29 32 38 39 39 41 42 42 41 40 38 39 46 45 47 49 49 46 47 49 51 47 47 51 52 54 57 63 64 64 61 60 56 53 49 44 42
Wind_Direction_850mb
271 266 264 248 254 242 237 246 248 242 236 225 215 227 207 245 264 195 204 196 196 189 194 190 191 185 188 184 182 180 180 182 181 179 184 194 210 219 218 221 230 239 264
261 259 256 245 246 240 240 240 246 235 242 219 209 220 227 257 269 203 200 193 192 190 191 193 188 186 189 189 185 186 183 183 184 187 184 189 198 196 194 192 199 213 230
254 254 241 236 238 229 227 245 246 230 235 220 202 189 210 265 249 191 194 193 191 191 189 188 195 189 194 193 192 191 191 185 189 194 175 166 185 171 175 165 180 202 249
241 247 232 232 233 234 236 247 237 232 227 215 199 195 191 289 205 189 192 192 194 193 190 191 192 191 199 199 198 194 195 194 189 188 194 195 183 167 167 183 197 216 262
226 236 221 231 242 238 233 248 222 230 218 204 197 181 205 284 308 195 190 189 193 197 191 195 191 193 200 203 202 197 199 200 198 194 190 188 176 178 174 182 204 236 255
220 226 221 229 237 221 226 235 222 221 218 205 188 155 264 283 247 181 185 189 190 196 201 199 201 198 203 204 205 204 204 202 202 203 203 203 196 195 187 197 220 250 257
219 215 218 224 225 214 211 221 226 213 215 212 202 198 236 283 200 186 189 193 197 201 206 208 205 200 202 204 206 204 202 202 199 201 202 206 208 208 212 236 241 246 263
213 209 204 217 219 220 243 239 214 205 203 209 189 175 222 298 187 197 198 197 201 196 193 189 194 198 199 203 206 205 204 205 201 199 200 204 207 212 224 221 242 216 226
198 173 199 216 221 232 231 200 196 194 188 202 212 207 245 275 227 196 203 202 196 194 187 194 197 199 203 207 206 206 205 204 204 207 209 212 212 212 210 224 230 229 173
221 202 207 203 211 225 217 196 190 188 186 185 192 208 233 245 235 203 205 202 199 197 191 194 196 202 209 210 208 206 204 202 206 209 209 210 211 211 219 249 244 229 266
254 229 215 230 227 217 204 190 187 185 181 171 159 185 196 225 200 198 205 208 205 201 197 201 201 201 205 208 207 206 203 203 204 204 208 215 219 229 249 260 241 227 223
252 248 205 226 209 183 163 174 186 178 163 157 143 74 69 159 176 198 207 210 208 206 205 206 209 212 212 210 207 204 203 203 205 208 209 211 224 236 242 230 225 227 233
87 88 93 120 146 157 158 153 152 152 150 157 137 108 102 109 147 194 199 205 210 208 206 207 204 205 206 205 203 204 204 203 208 212 217 232 239 239 231 230 229 239 252
58 57 76 92 104 135 150 151 144 145 137 140 131 116 127 171 195 156 188 200 206 206 205 204 204 201 205 201 209 204 203 207 210 216 224 235 240 236 229 226 235 237 252
44 54 63 72 80 89 96 101 108 106 106 99 109 112 101 76 142 185 170 162 193 212 221 205 204 207 202 205 199 204 210 210 215 223 237 222 219 227 231 233 238 245 241
41 52 57 65 70 75 79 87 92 93 97 105 112 121 120 127 105 138 155 156 177 191 201 206 193 184 190 198 201 199 216 235 231 227 216 216 217 220 226 233 230 231 232
48 51 56 58 60 64 68 72 81 92 99 100 90 90 89 118 145 149 161 171 179 164 171 191 194 200 203 209 214 220 228 237 232 211 205 211 212 220 233 227 222 225 235
47 54 59 61 65 65 68 74 77 79 79 80 77 72 70 78 115 170 177 197 235 234 234 216 215 222 215 212 210 220 217 216 211 216 232 231 229 240 228 219 221 231 240
48 50 54 57 61 63 67 77 80 79 79 75 67 65 66 85 108 124 144 170 181 200 206 213 213 216 211 205 208 216 224 230 231 232 224 229 235 222 218 223 225 227 235
47 47 51 55 56 54 53 60 63 69 69 69 85 102 118 243 256 230 217 221 234 256 270 264 254 251 247 247 241 232 226 229 227 221 232 225 219 220 219 221 230 238 249
50 49 49 50 50 46 39 44 42 45 28 18 22 16 342 286 245 250 257 251 236 233 232 231 236 241 262 256 253 236 228 232 237 230 226 222 220 222 221 226 237 247 257
50 48 47 44 41 39 37 38 39 31 14 7 6 347 335 319 308 292 277 270 270 265 248 241 238 234 233 229 226 228 226 227 225 220 225 227 225 228 231 237 242 245 251
41 39 33 27 26 21 24 23 26 9 9 8 347 341 335 321 315 299 290 290 286 271 259 258 259 253 245 237 231 229 222 220 221 215 213 221 226 227 231 239 238 242 252
33 31 29 27 23 16 10 8 359 352 349 341 337 330 326 319 309 310 314 298 275 274 271 265 261 254 249 244 236 234 228 224 223 226 227 223 224 227 229 229 235 243 248
18 7 2 4 2 0 357 348 333 335 341 340 331 318 316 318 316 313 286 280 287 283 271 266 263 263 256 249 245 240 234 236 234 229 229 226 224 225 226 228 232 237 237
348 346 347 338 335 330 327 326 329 322 313 312 316 321 320 312 307 303 296 289 280 272 270 268 262 256 256 251 244 239 235 231 232 232 231 232 232 232 229 229 231 231 233